INTELSAT 907 (IS-907)

Last updated on Fri Jan 01 2021 06:25:09 GMT+0000 (Coordinated Universal Time)

1 27683U 03007A 20366.91504733 -.00000263 00000-0 00000-0 0 9997 2 27683 0.6544 89.2907 0000700 249.4137 246.2654 0.99162942 65427

Satellite not in orbit

INTELSAT 907 (IS-907)